This is the latest recevied weather packets stored in our database for station/object WW7CH-15. If no packets are shown the sender has not sent any weather packets the latest 10 day(s).
| Time | Temp. | Humidity | Pressure | Rain* | Wind** | Luminosity | Snow |
|---|---|---|---|---|---|---|---|
| 1777511120 | 18.33° C | 55% | - | 0 mm | - | - | - |
| 1777510823 | 18.33° C | 54% | - | 0 mm | - | - | - |
| 1777510518 | 18.89° C | 54% | - | 0 mm | - | - | - |
| 1777510220 | 18.89° C | 54% | - | 0 mm | - | - | - |
| 1777509920 | 18.33° C | 54% | - | 0 mm | - | - | - |
| 1777509320 | 18.89° C | 54% | - | 0 mm | - | - | - |
| 1777509020 | 18.89° C | 53% | - | 0 mm | - | - | - |
| 1777508420 | 18.89° C | 53% | - | 0 mm | - | - | - |
| 1777508120 | 18.89° C | 54% | - | 0 mm | - | - | - |
| 1777507820 | 18.89° C | 53% | - | 0 mm | - | - | - |
| 1777507520 | 18.89° C | 55% | - | 0 mm | - | - | - |
| 1777507220 | 18.89° C | 54% | - | 0 mm | - | - | - |
| 1777506620 | 18.89° C | 54% | - | 0 mm | - | - | - |
| 1777506320 | 18.89° C | 53% | - | 0 mm | - | - | - |
| 1777505720 | 18.89° C | 56% | - | 0 mm | - | - | - |
| 1777500620 | 17.78° C | 56% | - | 0 mm | - | - | - |
| 1777491320 | 15° C | 59% | - | 0 mm | - | - | - |
| 1777487718 | 13.33° C | 59% | - | 0 mm | - | - | - |
| 1777484118 | 12.22° C | 55% | - | 0 mm | - | - | - |
| 1777480518 | 10° C | 33% | - | 0 mm | - | - | - |
| 1777479918 | 10° C | 34% | - | 0 mm | - | - | - |
| 1777479618 | 9.44° C | 35% | - | 0 mm | - | - | - |
| 1777478118 | 9.44° C | 36% | - | 0 mm | - | - | - |
| 1777476918 | 9.44° C | 37% | - | 0 mm | - | - | - |
| 1777470918 | - | - | - | 0 mm | - | - | - |
* Rain latest hour (hover to see other rain measurements)
** Current wind speed in m/s (hover to see current wind gust speed)